ARG2804 SAEZ-SAAR

Flight info

Callsign ARG2804
Flight time 0h 33m
Altitude 24000
Route ATOVO2A ATOVO W5 ESKON
Aircraft B38M/M-SDE1FGHILORVWXY/HB1

Departure

Time 2026-04-29 00:02
Airport Ezeiza International Airport - Ministro Pistarini (SAEZ)

Arrival

Time 2026-04-29 00:35
Airport Rosario Islas Malvinas International Airport (SAAR)
Time Latitude Longitude Altitude Speed Heading
2026-04-28 23:13 -34.81549 -58.53932 77 ft 0 kts 322°
2026-04-28 23:33 -34.81557 -58.53924 69 ft 2 kts 323°
2026-04-28 23:33 -34.81571 -58.53912 66 ft 2 kts 324°
2026-04-28 23:33 -34.81584 -58.53900 75 ft 2 kts 327°
2026-04-28 23:34 -34.81598 -58.53890 72 ft 2 kts 329°
2026-04-28 23:34 -34.81613 -58.53880 68 ft 2 kts 332°
2026-04-28 23:34 -34.81628 -58.53871 74 ft 2 kts 336°
2026-04-28 23:34 -34.81643 -58.53863 73 ft 2 kts 341°
2026-04-28 23:35 -34.81659 -58.53858 69 ft 2 kts 349°
2026-04-28 23:35 -34.81675 -58.53856 74 ft 2 kts
2026-04-28 23:35 -34.81692 -58.53859 70 ft 2 kts 19°
2026-04-28 23:35 -34.81706 -58.53868 70 ft 2 kts 40°
2026-04-28 23:36 -34.81715 -58.53879 68 ft 1 kts 54°
2026-04-28 23:36 -34.81716 -58.53881 68 ft 0 kts 56°
2026-04-28 23:38 -34.81709 -58.53865 78 ft 7 kts 66°
2026-04-28 23:39 -34.81718 -58.53751 74 ft 20 kts 121°
2026-04-28 23:39 -34.81843 -58.53665 74 ft 22 kts 155°
2026-04-28 23:39 -34.81986 -58.53582 74 ft 23 kts 155°
2026-04-28 23:39 -34.82123 -58.53503 83 ft 21 kts 155°
2026-04-28 23:40 -34.82237 -58.53439 87 ft 17 kts 156°
2026-04-28 23:40 -34.82351 -58.53377 81 ft 18 kts 156°
2026-04-28 23:40 -34.82467 -58.53312 84 ft 17 kts 156°
2026-04-28 23:40 -34.82495 -58.53298 91 ft 4 kts 157°
2026-04-28 23:41 -34.82549 -58.53269 90 ft 14 kts 156°
2026-04-28 23:41 -34.82649 -58.53212 89 ft 16 kts 154°
2026-04-28 23:41 -34.82737 -58.53159 89 ft 12 kts 153°
2026-04-28 23:41 -34.82801 -58.53122 90 ft 8 kts 157°
2026-04-28 23:42 -34.82856 -58.53094 90 ft 11 kts 157°
2026-04-28 23:42 -34.82943 -58.53048 89 ft 14 kts 156°
2026-04-28 23:42 -34.83026 -58.53001 88 ft 12 kts 154°
2026-04-28 23:42 -34.83095 -58.52961 89 ft 13 kts 154°
2026-04-28 23:43 -34.83212 -58.52896 88 ft 22 kts 156°
2026-04-28 23:43 -34.83357 -58.52815 89 ft 22 kts 155°
2026-04-28 23:43 -34.83490 -58.52738 91 ft 20 kts 153°
2026-04-28 23:43 -34.83564 -58.52627 83 ft 21 kts 89°
2026-04-28 23:44 -34.83544 -58.52564 83 ft 3 kts 47°
2026-04-28 23:44 -34.83541 -58.52560 83 ft 0 kts 48°
2026-04-28 23:45 -34.83519 -58.52532 88 ft 9 kts 45°
2026-04-28 23:46 -34.83418 -58.52499 87 ft 24 kts 352°
2026-04-28 23:46 -34.83150 -58.52590 88 ft 69 kts 344°
2026-04-28 23:46 -34.82667 -58.52758 83 ft 41 kts 344°
2026-04-28 23:46 -34.82398 -58.52851 87 ft 36 kts 345°
2026-04-28 23:47 -34.82199 -58.52920 86 ft 0 kts 346°
2026-04-28 23:47 -34.82193 -58.52922 86 ft 3 kts 345°
2026-04-28 23:47 -34.82177 -58.52927 86 ft 0 kts 345°
2026-04-28 23:50 -34.82176 -58.52928 85 ft 1 kts 345°
2026-04-28 23:50 -34.82122 -58.52945 83 ft 15 kts 343°
2026-04-28 23:51 -34.82024 -58.53036 81 ft 20 kts 294°
2026-04-28 23:51 -34.81987 -58.53218 76 ft 24 kts 283°
2026-04-28 23:51 -34.81945 -58.53424 78 ft 25 kts 283°
2026-04-28 23:51 -34.81911 -58.53595 78 ft 13 kts 283°
2026-04-28 23:52 -34.81911 -58.53603 75 ft 1 kts 265°
2026-04-28 23:52 -34.81913 -58.53612 78 ft 0 kts 255°
2026-04-28 23:54 -34.81914 -58.53613 78 ft 0 kts 236°
2026-04-28 23:54 -34.81920 -58.53615 78 ft 1 kts 183°
2026-04-28 23:54 -34.81943 -58.53607 72 ft 8 kts 160°
2026-04-28 23:54 -34.82027 -58.53562 71 ft 18 kts 155°
2026-04-28 23:55 -34.82159 -58.53487 83 ft 11 kts 154°
2026-04-28 23:55 -34.82163 -58.53485 83 ft 0 kts 153°
2026-04-28 23:58 -34.82186 -58.53471 86 ft 4 kts 154°
2026-04-28 23:58 -34.82207 -58.53457 84 ft 7 kts 149°
2026-04-28 23:58 -34.82261 -58.53365 85 ft 19 kts 103°
2026-04-28 23:58 -34.82293 -58.53190 86 ft 23 kts 104°
2026-04-28 23:59 -34.82328 -58.52987 89 ft 25 kts 103°
2026-04-28 23:59 -34.82439 -58.52839 85 ft 27 kts 161°
2026-04-28 23:59 -34.82637 -58.52768 83 ft 35 kts 164°
2026-04-28 23:59 -34.82901 -58.52677 83 ft 43 kts 163°
2026-04-29 00:00 -34.83190 -58.52578 86 ft 42 kts 164°
2026-04-29 00:00 -34.83422 -58.52508 88 ft 23 kts 181°
2026-04-29 00:00 -34.83506 -58.52512 90 ft 4 kts 135°
2026-04-29 00:00 -34.83508 -58.52504 86 ft 0 kts 91°
2026-04-29 00:01 -34.83503 -58.52492 88 ft 4 kts 56°
2026-04-29 00:01 -34.83447 -58.52485 88 ft 12 kts 344°
2026-04-29 00:01 -34.83356 -58.52515 85 ft 16 kts 346°
2026-04-29 00:01 -34.83193 -58.52574 87 ft 33 kts 343°
2026-04-29 00:02 -34.82842 -58.52694 86 ft 91 kts 341°
2026-04-29 00:02 -34.81960 -58.52995 110 ft 167 kts 345°
2026-04-29 00:02 -34.80777 -58.53430 876 ft 178 kts 342°
2026-04-29 00:02 -34.79605 -58.53830 2123 ft 175 kts 340°
2026-04-29 00:03 -34.78467 -58.54398 3024 ft 181 kts 318°
2026-04-29 00:03 -34.77752 -58.55697 3750 ft 197 kts 284°
2026-04-29 00:03 -34.77707 -58.57429 4501 ft 216 kts 264°
2026-04-29 00:03 -34.77826 -58.59321 5316 ft 233 kts 266°
2026-04-29 00:04 -34.77942 -58.61339 6143 ft 249 kts 266°
2026-04-29 00:04 -34.77923 -58.63450 7227 ft 251 kts 282°
2026-04-29 00:04 -34.77088 -58.65324 8350 ft 261 kts 308°
2026-04-29 00:04 -34.75638 -58.66749 9255 ft 277 kts 324°
2026-04-29 00:05 -34.73939 -58.67906 10246 ft 282 kts 323°
2026-04-29 00:05 -34.72207 -58.69142 10931 ft 297 kts 324°
2026-04-29 00:05 -34.70364 -58.70426 11478 ft 315 kts 325°
2026-04-29 00:05 -34.68400 -58.71774 12045 ft 331 kts 326°
2026-04-29 00:06 -34.66347 -58.73169 12621 ft 343 kts 326°
2026-04-29 00:06 -34.64259 -58.74568 13613 ft 343 kts 327°
2026-04-29 00:06 -34.62141 -58.75977 14331 ft 350 kts 327°
2026-04-29 00:06 -34.59991 -58.77404 15040 ft 354 kts 327°
2026-04-29 00:07 -34.57840 -58.78828 15728 ft 359 kts 327°
2026-04-29 00:07 -34.55627 -58.80292 16385 ft 365 kts 327°
2026-04-29 00:07 -34.53383 -58.81775 17053 ft 369 kts 327°
2026-04-29 00:07 -34.51103 -58.83280 17703 ft 375 kts 327°
2026-04-29 00:08 -34.48796 -58.84802 18321 ft 379 kts 327°
2026-04-29 00:08 -34.46469 -58.86336 18889 ft 383 kts 327°
2026-04-29 00:08 -34.44138 -58.87871 19464 ft 386 kts 327°
2026-04-29 00:08 -34.41769 -58.89431 20026 ft 390 kts 327°
2026-04-29 00:09 -34.39366 -58.91011 20586 ft 394 kts 327°
2026-04-29 00:09 -34.36943 -58.92604 21160 ft 397 kts 327°
2026-04-29 00:09 -34.34499 -58.94211 21715 ft 400 kts 326°
2026-04-29 00:09 -34.32222 -58.96114 22242 ft 396 kts 311°
2026-04-29 00:10 -34.30357 -58.98557 22757 ft 398 kts 309°
2026-04-29 00:10 -34.28369 -59.00924 23294 ft 403 kts 311°
2026-04-29 00:10 -34.26344 -59.03300 23787 ft 407 kts 311°
2026-04-29 00:10 -34.24285 -59.05702 23882 ft 418 kts 311°
2026-04-29 00:11 -34.22162 -59.08168 23887 ft 430 kts 311°
2026-04-29 00:11 -34.19986 -59.10691 23904 ft 437 kts 311°
2026-04-29 00:11 -34.15568 -59.15813 23932 ft 441 kts 312°
2026-04-29 00:12 -34.13353 -59.18378 23937 ft 442 kts 312°
2026-04-29 00:12 -34.11129 -59.20940 23939 ft 442 kts 313°
2026-04-29 00:12 -34.09638 -59.22610 23940 ft 443 kts 313°
2026-04-29 00:12 -34.07380 -59.25137 23945 ft 443 kts 313°
2026-04-29 00:13 -34.05126 -59.27663 23949 ft 443 kts 313°
2026-04-29 00:13 -34.02135 -59.31015 23948 ft 443 kts 313°
2026-04-29 00:13 -34.00609 -59.32723 23948 ft 443 kts 313°
2026-04-29 00:13 -33.98379 -59.35219 23949 ft 443 kts 313°
2026-04-29 00:14 -33.96089 -59.37780 23949 ft 443 kts 313°
2026-04-29 00:14 -33.93859 -59.40272 23949 ft 443 kts 313°
2026-04-29 00:14 -33.91565 -59.42833 23949 ft 443 kts 313°
2026-04-29 00:14 -33.89306 -59.45354 23951 ft 444 kts 313°
2026-04-29 00:15 -33.87040 -59.47880 23949 ft 444 kts 313°
2026-04-29 00:15 -33.84779 -59.50399 23948 ft 444 kts 313°
2026-04-29 00:15 -33.82510 -59.52926 23949 ft 444 kts 313°
2026-04-29 00:15 -33.80244 -59.55446 23951 ft 444 kts 313°
2026-04-29 00:16 -33.78002 -59.57938 23949 ft 444 kts 313°
2026-04-29 00:16 -33.75750 -59.60439 23952 ft 437 kts 313°
2026-04-29 00:16 -33.73537 -59.62896 23950 ft 433 kts 313°
2026-04-29 00:16 -33.71331 -59.65341 23844 ft 423 kts 313°
2026-04-29 00:17 -33.69308 -59.67822 22855 ft 412 kts 306°
2026-04-29 00:17 -33.67463 -59.70469 21577 ft 414 kts 307°
2026-04-29 00:17 -33.65615 -59.73081 21187 ft 404 kts 307°
2026-04-29 00:17 -33.63817 -59.75631 20768 ft 398 kts 307°
2026-04-29 00:18 -33.62028 -59.78165 20185 ft 398 kts 307°
2026-04-29 00:18 -33.60233 -59.80708 19612 ft 400 kts 307°
2026-04-29 00:18 -33.58432 -59.83256 19056 ft 398 kts 307°
2026-04-29 00:18 -33.56666 -59.85753 18511 ft 397 kts 307°
2026-04-29 00:19 -33.54889 -59.88266 17916 ft 394 kts 307°
2026-04-29 00:19 -33.53122 -59.90762 17320 ft 390 kts 307°
2026-04-29 00:19 -33.51373 -59.93229 16768 ft 386 kts 307°
2026-04-29 00:19 -33.49646 -59.95665 16227 ft 382 kts 308°
2026-04-29 00:20 -33.47933 -59.98081 15692 ft 378 kts 307°
2026-04-29 00:20 -33.46238 -60.00468 15176 ft 375 kts 308°
2026-04-29 00:20 -33.44569 -60.02817 14990 ft 363 kts 308°
2026-04-29 00:20 -33.42954 -60.05089 14989 ft 359 kts 308°
2026-04-29 00:21 -33.41334 -60.07367 14737 ft 353 kts 308°
2026-04-29 00:21 -33.39758 -60.09581 13982 ft 349 kts 308°
2026-04-29 00:21 -33.38178 -60.11800 12888 ft 351 kts 308°
2026-04-29 00:21 -33.36592 -60.14026 11806 ft 352 kts 308°
2026-04-29 00:22 -33.35024 -60.16224 11399 ft 342 kts 308°
2026-04-29 00:22 -33.33526 -60.18324 11255 ft 329 kts 308°
2026-04-29 00:22 -33.32071 -60.20363 11095 ft 316 kts 308°
2026-04-29 00:22 -33.30669 -60.22326 10897 ft 305 kts 308°
2026-04-29 00:23 -33.29314 -60.24221 10708 ft 295 kts 308°
2026-04-29 00:23 -33.28005 -60.26052 10540 ft 284 kts 308°
2026-04-29 00:23 -33.26743 -60.27817 10387 ft 274 kts 308°
2026-04-29 00:23 -33.25526 -60.29518 10225 ft 264 kts 308°
2026-04-29 00:24 -33.24355 -60.31153 10078 ft 254 kts 308°
2026-04-29 00:24 -33.23244 -60.32777 9812 ft 253 kts 301°
2026-04-29 00:24 -33.22512 -60.34698 9400 ft 256 kts 290°
2026-04-29 00:24 -33.21846 -60.36679 9069 ft 258 kts 291°
2026-04-29 00:25 -33.21173 -60.38664 8739 ft 258 kts 291°
2026-04-29 00:25 -33.20504 -60.40644 8426 ft 257 kts 291°
2026-04-29 00:25 -33.19845 -60.42596 8104 ft 256 kts 291°
2026-04-29 00:25 -33.19180 -60.44570 7787 ft 255 kts 291°
2026-04-29 00:26 -33.18515 -60.46537 7464 ft 255 kts 291°
2026-04-29 00:26 -33.17852 -60.48500 7151 ft 255 kts 291°
2026-04-29 00:26 -33.17190 -60.50461 6838 ft 254 kts 291°
2026-04-29 00:26 -33.16530 -60.52415 6518 ft 253 kts 291°
2026-04-29 00:27 -33.15871 -60.54363 6189 ft 252 kts 291°
2026-04-29 00:27 -33.15214 -60.56303 5872 ft 251 kts 291°
2026-04-29 00:27 -33.14563 -60.58226 5541 ft 249 kts 291°
2026-04-29 00:27 -33.13925 -60.60109 5232 ft 246 kts 292°
2026-04-29 00:28 -33.13287 -60.61991 4925 ft 244 kts 292°
2026-04-29 00:28 -33.12654 -60.63860 4611 ft 241 kts 292°
2026-04-29 00:28 -33.12018 -60.65731 4293 ft 239 kts 293°
2026-04-29 00:28 -33.11408 -60.67526 4067 ft 233 kts 293°
2026-04-29 00:29 -33.10813 -60.69279 3943 ft 224 kts 293°
2026-04-29 00:29 -33.10239 -60.70968 3819 ft 215 kts 293°
2026-04-29 00:29 -33.09690 -60.72581 3723 ft 204 kts 294°
2026-04-29 00:29 -33.09172 -60.74105 3600 ft 194 kts 294°
2026-04-29 00:30 -33.08678 -60.75556 3479 ft 182 kts 294°
2026-04-29 00:30 -33.08224 -60.76888 3377 ft 167 kts 294°
2026-04-29 00:30 -33.07796 -60.78143 3137 ft 160 kts 295°
2026-04-29 00:30 -33.07375 -60.79376 2940 ft 160 kts 295°
2026-04-29 00:31 -33.06932 -60.80594 2802 ft 159 kts 304°
2026-04-29 00:31 -33.06062 -60.81341 2690 ft 158 kts 342°
2026-04-29 00:31 -33.04982 -60.81510 2563 ft 156 kts 355°
2026-04-29 00:31 -33.03914 -60.81408 2404 ft 152 kts
2026-04-29 00:32 -33.02890 -60.81204 2247 ft 142 kts
2026-04-29 00:32 -33.01941 -60.81000 2086 ft 135 kts
2026-04-29 00:32 -33.01027 -60.80802 1926 ft 133 kts
2026-04-29 00:32 -33.00120 -60.80603 1760 ft 132 kts
2026-04-29 00:33 -32.99224 -60.80407 1589 ft 132 kts
2026-04-29 00:33 -32.98308 -60.80206 1410 ft 133 kts
2026-04-29 00:33 -32.97397 -60.80009 1240 ft 133 kts
2026-04-29 00:33 -32.96490 -60.79810 1057 ft 132 kts
2026-04-29 00:34 -32.95593 -60.79615 889 ft 133 kts
2026-04-29 00:34 -32.94664 -60.79414 708 ft 136 kts
2026-04-29 00:34 -32.93736 -60.79209 529 ft 136 kts
2026-04-29 00:34 -32.92798 -60.79008 351 ft 136 kts
2026-04-29 00:35 -32.91877 -60.78814 163 ft 136 kts 10°
2026-04-29 00:35 -32.90977 -60.78610 101 ft 117 kts 10°
2026-04-29 00:35 -32.90351 -60.78461 96 ft 68 kts 11°
2026-04-29 00:35 -32.90001 -60.78387 99 ft 34 kts 10°
2026-04-29 00:36 -32.89764 -60.78335 101 ft 35 kts 11°
2026-04-29 00:36 -32.89528 -60.78279 101 ft 35 kts
2026-04-29 00:36 -32.89292 -60.78225 100 ft 35 kts 11°
2026-04-29 00:36 -32.89123 -60.78150 100 ft 21 kts 39°
2026-04-29 00:37 -32.89044 -60.78138 99 ft 5 kts 300°
2026-04-29 00:37 -32.89051 -60.78174 100 ft 6 kts 230°
2026-04-29 00:37 -32.89080 -60.78185 100 ft 7 kts 187°
2026-04-29 00:37 -32.89172 -60.78204 102 ft 17 kts 189°
2026-04-29 00:38 -32.89303 -60.78232 99 ft 21 kts 190°
2026-04-29 00:38 -32.89468 -60.78267 100 ft 29 kts 191°
2026-04-29 00:38 -32.89706 -60.78321 100 ft 40 kts 191°
2026-04-29 00:38 -32.89994 -60.78385 98 ft 44 kts 191°
2026-04-29 00:39 -32.90298 -60.78455 97 ft 46 kts 191°
2026-04-29 00:39 -32.90612 -60.78526 100 ft 46 kts 191°
2026-04-29 00:39 -32.90845 -60.78571 102 ft 24 kts 179°
2026-04-29 00:39 -32.91013 -60.78516 101 ft 27 kts 157°
2026-04-29 00:40 -32.91144 -60.78425 98 ft 22 kts 143°
2026-04-29 00:40 -32.91259 -60.78315 98 ft 17 kts 141°
2026-04-29 00:40 -32.91359 -60.78218 98 ft 20 kts 141°
2026-04-29 00:40 -32.91481 -60.78184 99 ft 20 kts 194°
2026-04-29 00:41 -32.91618 -60.78243 100 ft 19 kts 202°
2026-04-29 00:41 -32.91661 -60.78236 99 ft 2 kts 118°
2026-04-29 00:41 -32.91664 -60.78214 100 ft 4 kts 100°
2026-04-29 00:41 -32.91679 -60.78158 99 ft 8 kts 111°
2026-04-29 00:42 -32.91681 -60.78152 98 ft 0 kts 111°